Regional Weather Roundup
Issued by NWS Glasgow, MT

Home | Current Version | Previous Version | Text Only | Print | Product List | Glossary On
Versions: 1 2 3 4 5 6 7 8 9 10 11 12 13 14 15 16 17 18 19 20 21 22 23 24 25 26 27 28 29 30 31 32 33 34 35 36 37 38 39 40 41 42 43 44 45 46 47 48 49 50
000
ASUS45 KGGW 210715
RWRGGW
HOURLY WEATHER ROUNDUP FOR NORTHEAST MONTANA
NATIONAL WEATHER SERVICE GLASGOW MONTANA
100 AM MDT SUN SEP 21 2014

NOTE: "FAIR" INDICATES FEW OR NO CLOUDS BELOW 12,000 FEET WITH NO
SIGNIFICANT WEATHER AND/OR OBSTRUCTIONS TO VISISBILITY.

NORTHEAST MONTANA


CITY           SKY/WX    TMP DP  RH WIND       PRES   REMARKS
GLASGOW        CLEAR     50  36  58 NW6       30.25S
PLENTYWOOD       N/A     47  36  65 NW6         N/A
WOLF POINT     CLEAR     43  37  79 S6        30.26R
JORDAN           N/A     41  39  93 W3        30.28R
WINNETT          N/A     43  39  86 CALM        N/A
SIDNEY         CLEAR     46  36  66 CALM      30.24S
GLENDIVE       NOT AVBL
MALTA            N/A     46  39  76 CALM        N/A
SCOBEY           N/A     39  30  70 NW5       30.21
OPHEIM           N/A     50  32  50 NW3       30.10R

FORT PECK REPORTS


CITY           SKY/WX    TMP DP  RH WIND       PRES   REMARKS
FORT PECK        N/A     53  37  54 W1          N/A
THE PINES        N/A     56  37  49 W1          N/A

SOUTHEAST MONTANA


CITY           SKY/WX    TMP DP  RH WIND       PRES   REMARKS
BILLINGS       CLEAR     57  41  55 N5        30.29S
MILES CITY     CLEAR     49  37  63 NW6       30.28R
BAKER          CLEAR     44  35  70 CALM      30.28S
LIVINGSTON     CLEAR     51  41  68 E8        30.30R

CENTRAL MONTANA


CITY           SKY/WX    TMP DP  RH WIND       PRES   REMARKS
HAVRE          CLEAR     46  39  76 E6        30.25S
LEWISTOWN      CLEAR     50  42  74 SE8       30.30S
GREAT FALLS    CLEAR     54  42  64 SE7       30.26S
CUT BANK       CLEAR     47  40  76 CALM      30.27F
HELENA         CLEAR     59  42  53 W8        30.25R
BUTTE          CLEAR     44  36  73 SE6       30.31R
BOZEMAN        CLEAR     50  41  71 CALM      30.28R

WESTERN MONTANA


CITY           SKY/WX    TMP DP  RH WIND       PRES   REMARKS
MISSOULA       CLEAR     55  41  59 CALM      30.18R
KALISPELL      NOT AVBL

NORTH DAKOTA


CITY           SKY/WX    TMP DP  RH WIND       PRES   REMARKS
WILLISTON      CLEAR     52  37  56 NW12      30.21R
DICKINSON      CLEAR     44  35  70 W7        30.21S
MINOT          CLEAR     52  40  63 W12       30.14R
BISMARCK       CLEAR     51  42  71 W6        30.16R

SOUTHERN SASKATCHEWAN


CITY           SKY/WX    TMP DP  RH WIND       PRES   REMARKS
REGINA         CLEAR     45  41  87 W5        30.18R
ESTEVAN        CLEAR     45  41  87 NW6       30.18R
SWIFT CURRENT  CLEAR     46  36  66 W10       30.23S




USA.gov is the U.S. government's official web portal to all federal, state and local government web resources and services.